Weather History for KCEU - April, 2014

Change the Weather History Date:

Wednesday, April 9, 2014

  Actual Average Record
Temperature  
Mean Temperature 60 °F -  
Max Temperature 72 °F 69 °F 88 °F (2011)
Min Temperature 48 °F 45 °F 29 °F (1972)
Degree Days  
Heating Degree Days 6    
Growing Degree Days 10 (Base 50)    
Moisture  
Dew Point 33 °F    
Average Humidity 39    
Maximum Humidity 63    
Minimum Humidity 14    
Precipitation  
Precipitation 0.00 in - - ()
Sea Level Pressure  
Sea Level Pressure 29.95 in    
Wind  
Wind Speed 6 mph (WNW)    
Max Wind Speed 14 mph    
Max Gust Speed 22 mph    
Visibility 10 miles    
Events      
Averages and records for this station are not official NWS values.
T = Trace of Precipitation, MM = Missing Value Source: NWS Daily Summary

Daily Weather History Graph

Daily Weather History Graph

Search for Another Location

Airport or City:

Trip Planner

Search our weather history database for the weather conditions in past years. The results will help you decide how hot, cold, wet, or windy it might be!

Date:

Astronomy

Apr. 09, 2014 Rise Set
Actual Time 7:07 AM EDT 7:58 PM EDT
Civil Twilight 6:42 AM EDT 8:24 PM EDT
Nautical Twilight 6:11 AM EDT 8:55 PM EDT
Astronomical Twilight 5:40 AM EDT 9:26 PM EDT
Moon 2:58 PM EDT (4/9) 3:43 AM EDT (4/9)
Length of Visible Light 13h 42m
Length of Day
12h 51m
Waxing Gibbous, 71% of the Moon is Illuminated
Apr 9
Waxing Gibbous
Apr 15
Full
Apr 22
Last Quarter
Apr 29
New
May 6
First Quarter

Hourly Weather History & Observations

Time (EDT) Temp. Dew Point Humidity Pressure Visibility Wind Dir Wind Speed Gust Speed Precip Events Conditions
12:54 AM 53.1 °F 34.0 °F 48% 29.78 in 10.0 mi WNW 3.5 mph - N/A   Clear
1:54 AM 52.0 °F 34.0 °F 50% 29.78 in 10.0 mi NW 3.5 mph - N/A   Clear
2:54 AM 50.0 °F 36.0 °F 59% 29.79 in 10.0 mi NNW 3.5 mph - N/A   Clear
3:54 AM 48.0 °F 36.0 °F 63% 29.79 in 10.0 mi West 3.5 mph - N/A   Clear
4:54 AM 53.1 °F 37.9 °F 57% 29.80 in 10.0 mi NW 10.4 mph - N/A   Overcast
5:54 AM 54.0 °F 37.9 °F 55% 29.83 in 10.0 mi NW 8.1 mph - N/A   Scattered Clouds
6:54 AM 52.0 °F 37.9 °F 59% 29.86 in 10.0 mi WNW 8.1 mph - N/A   Mostly Cloudy
7:54 AM 54.0 °F 37.9 °F 55% 29.90 in 10.0 mi WNW 4.6 mph - N/A   Overcast
8:54 AM 52.0 °F 39.9 °F 63% 29.93 in 10.0 mi West 4.6 mph - N/A   Partly Cloudy
9:54 AM 60.1 °F 39.0 °F 46% 29.95 in 10.0 mi WNW 6.9 mph - N/A   Clear
10:54 AM 63.0 °F 39.0 °F 41% 29.97 in 10.0 mi North - - N/A   Clear
11:54 AM 64.0 °F 37.0 °F 37% 29.99 in 10.0 mi NW 4.6 mph - N/A   Partly Cloudy
12:54 PM 64.0 °F 35.1 °F 34% 29.99 in 10.0 mi WNW 6.9 mph - N/A   Scattered Clouds
1:54 PM 68.0 °F 34.0 °F 28% 29.99 in 10.0 mi West 10.4 mph - N/A   Partly Cloudy
2:54 PM 70.0 °F 30.9 °F 24% 29.99 in 10.0 mi WNW 13.8 mph 19.6 mph N/A   Partly Cloudy
3:54 PM 70.0 °F 28.9 °F 22% 29.98 in 10.0 mi West 11.5 mph 21.9 mph N/A   Clear
4:54 PM 71.1 °F 25.0 °F 18% 29.98 in 10.0 mi WNW 12.7 mph 20.7 mph N/A   Clear
5:54 PM 71.1 °F 19.9 °F 14% 29.99 in 10.0 mi WNW 12.7 mph - N/A   Clear
6:54 PM 69.1 °F 24.1 °F 18% 30.01 in 10.0 mi NNW 8.1 mph - N/A   Clear
7:54 PM 64.0 °F 25.0 °F 23% 30.04 in 10.0 mi WNW 5.8 mph - N/A   Clear
8:54 PM 61.0 °F 28.0 °F 29% 30.07 in 10.0 mi WNW 6.9 mph - N/A   Clear
9:54 PM 60.1 °F 28.0 °F 30% 30.10 in 10.0 mi WNW 8.1 mph - N/A   Clear
10:54 PM 57.0 °F 28.0 °F 33% 30.12 in 10.0 mi WNW 8.1 mph - N/A   Clear
11:54 PM 57.9 °F 27.0 °F 31% 30.13 in 10.0 mi WNW 5.8 mph - N/A   Clear